Regional Weather Roundup
Issued by NWS

Home | Current Version | Previous Version | Graphics & Text | Print | Product List | Glossary On
Versions: 1 2 3 4 5 6 7 8 9 10 11 12 13 14 15 16 17 18 19 20 21 22 23 24 25 26 27 28 29 30 31 32 33 34 35 36 37 38 39 40 41 42 43 44 45 46 47 48 49 50
000
ASUS45 KBOU 201707
RWRCO

WEATHER ROUNDUP FOR COLORADO
NATIONAL WEATHER SERVICE DENVER/BOULDER CO
1100 AM MDT MON APR 20 2015

NOTE: "FAIR" INDICATES FEW OR NO CLOUDS BELOW 12000 FEET WITH NO
SIGNIFICANT WEATHER AND/OR OBSTRUCTIONS TO VISIBILITY.

COZ001>005-013-030-031-201800-
...NORTHWEST COLORADO...

CITY           SKY/WX    TMP DP  RH WIND       PRES   REMARKS
CRAIG          PTSUNNY   45  36  70 N6        30.03F
HAYDEN         CLOUDY    39  34  81 N3        30.04S
MEEKER         MOSUNNY   48  33  56 CALM      30.02F
MOUNT WERNER   NOT AVBL
STEAMBOAT SPGS PTSUNNY   39  31  73 S3        30.04R
WALDEN         CLOUDY    34  23  64 S3        30.02S
$$

COZ006>008-011-201800-
...WEST CENTRAL VALLEYS...

CITY           SKY/WX    TMP DP  RH WIND       PRES   REMARKS
GRAND JUNCTION SUNNY     55  41  59 E7        29.99F
MONTROSE       MOSUNNY   52  42  69 VRB3      30.03F
EAGLE          PTSUNNY   46  36  66 CALM      30.03F
RIFLE          SUNNY     51  39  63 VRB3      30.01F
DELTA          MOSUNNY   55  42  59 E5        30.02S
NUCLA          MOSUNNY   54  32  43 SW6       30.04S
$$

COZ017>023-064>068-201800-
...SOUTHWEST COLORADO...

CITY           SKY/WX    TMP DP  RH WIND       PRES   REMARKS
DURANGO        SUNNY     55  25  31 S6        29.99F
CORTEZ         MOSUNNY   58  26  29 VRB5      30.00S
PAGOSA SPRINGS SUNNY     52  21  29 SW10      30.02F
TELLURIDE      MOSUNNY   45  26  49 SW6       30.09S
WOLF CREEK PAS CLOUDY    28  21  74 SW12G20   30.16R WCI  18
$$

COZ009-010-012-014-032>034-037-058>063-201800-
...CENTRAL COLORADO...

CITY           SKY/WX    TMP DP  RH WIND       PRES   REMARKS
ASPEN          PTSUNNY   44  29  55 NW12G17   30.02F
BUENA VISTA    MOSUNNY   40  29  66 CALM      30.00F
COPPER MTN     CLOUDY    25  19  80 W21G36    30.07S WCI  10
BERTHOUD PASS  CLOUDY    18   9  68 NW30G38   30.03S WCI  -2
COTTONWOOD PAS CLOUDY    41  25  52 CALM      30.04S
GUNNISON       MOSUNNY   41  30  65 CALM      30.07F
KREMMLING      MOSUNNY   39  30  70 CALM      30.04S
LEADVILLE      CLOUDY    35  17  47 NW15      30.03F WCI  25
MONARCH PASS   CLOUDY    23  21  93 MISG      30.18S
SALIDA         MOSUNNY   46  29  53 N3        30.07F
SUNLIGHT       CLOUDY   N/A N/A N/A CALM      30.13S
WILKERSON PASS MOSUNNY   30  19  64 W6G22     30.07S WCI  24
$$

COZ069>075-201800-
...SAN LUIS VALLEY/SANGRE DE CRISTO MOUNTAINS...

CITY           SKY/WX    TMP DP  RH WIND       PRES   REMARKS
ALAMOSA        CLOUDY    48  26  42 W10       30.02F
LA VETA PASS   CLOUDY    34  27  75 S3        30.06S
SAGUACHE       PTSUNNY   46  27  46 NW13G21   30.02S
$$

COZ035-036-038>040-201800-
...NORTHERN COLORADO FRONT RANGE...

CITY           SKY/WX    TMP DP  RH WIND       PRES   REMARKS
DENVER INTL AP MOSUNNY   45  29  53 N5        30.00F
DMNS CITY PARK   N/A     47  27  44 NW3       29.99F
AURORA         MOSUNNY   44  28  51 S3        30.00F
FRONT RANGE AP MOSUNNY   45  30  57 CALM      30.01F
ERIE MUNI ARPT SUNNY     45  29  54 CALM      30.00F
BOULDER MUN AP SUNNY     45  32  61 E6        29.99F
CENTENNIAL     MOSUNNY   45  28  51 N5        29.99F
BROOMFIELD     MOSUNNY   45  28  53 E3        30.00F
FORT COLLINS   SUNNY     43  32  65 SW5       30.02F
LONGMONT       MOSUNNY   50  33  52 E7        30.02F
$$

COZ041-046-047-076>085-087-088-201800-
...PIKES PEAK/PALMER DIVIDE AND SOUTHERN FOOTHILLS...

CITY           SKY/WX    TMP DP  RH WIND       PRES   REMARKS
COLO. SPRINGS  MOSUNNY   44  29  55 S8        30.01F
A. F. ACADEMY  MOSUNNY   44  28  52 S10       29.99F
ELLICOTT       SUNNY    N/A N/A N/A SW6G17    30.01F
FALCON         MOSUNNY   43  29  56 S8        30.02S
FORT CARSON    MOSUNNY   46  32  58 S10G17    30.00F
LIMON          SUNNY     43  26  51 SW6       30.02F
MONUMENT HILL  SUNNY     43  27  52 CALM      29.99S
TRINIDAD       MOSUNNY   51  32  48 NW6       30.00S
$$

COZ042>045-048>051-090-091-201800-
...NORTHEAST COLORADO...

CITY           SKY/WX    TMP DP  RH WIND       PRES   REMARKS
GREELEY ARPT   SUNNY     45  28  53 W3        30.02F
AKRON          SUNNY     46  26  45 NW10      30.00F
BURLINGTON     PTSUNNY   49  24  37 NW14      30.02F
WRAY           SUNNY     52  22  31 NW14G22   30.00F
STERLING       MOSUNNY   50  28  43 NW13      29.99F
HOLYOKE        SUNNY     54  27  35 NW15G22   29.99F
FORT MORGAN    SUNNY     47  29  49 W12G17    30.01F
$$

COZ086-089-092>099-201800-
...SOUTHEAST COLORADO...

CITY           SKY/WX    TMP DP  RH WIND       PRES   REMARKS
PUEBLO         SUNNY     49  26  41 S7        30.01F
LA JUNTA       MOSUNNY   51  29  42 SE12      30.02F
LAMAR          PTSUNNY   49  24  37 SE5       30.03F
SPRINGFIELD      N/A     49  25  39 SE8       30.03F
$$


USA.gov is the U.S. government's official web portal to all federal, state and local government web resources and services.